User: anonymous   Login
Location: Ash Swamp
(41.5170°N, 74.6157°W)
Time: 22:19:50
(UTC+00:00)
Language:

CZ-2D R/B - Orbit

View from above orbital plane
View from above orbital plane
View from above satellite
View from above satellite

Ground track
Ground track

The orbit data is extracted from the following two-line orbital elements,

1 37932U 11068C   20263.36321275 +.00000000 +00000-0 +19531-4 0  9995
2 37932 098.6603 197.8663 0036750 191.3494 277.6325 14.22043814458390
Epoch (UTC): 19 September 2020 08:43:01
Eccentricity: 0.0036750
inclination: 98.6603°
perigee height: 792 km
apogee height: 845 km
right ascension of ascending node: 197.8663°
argument of perigee: 191.3494°
revolutions per day: 14.22043814
mean anomaly at epoch: 277.6325°
orbit number at epoch: 45839

The dashed part of the orbit path shows where the satellite is in the earth's shadow,  

DLR